Torna al catalogo

FENGYUN 1C DEB

AttivoSSO
NORAD 30715·DEBRIS·🇨🇳 China

Lanciato May 10, 1999 da Taiyuan Satellite Launch Center

Loading…

Prossimi Passaggi (prossime 24 ore)

TLE

AggiornatoSource: Space-Track

Epoca: Sep 14, 2026, 03:59 UTC

1 30715U 99025ARZ 26257.16600278  .00001833  00000-0  92970-3 0  9998
2 30715  98.9599 332.8963 0066442 107.1336 253.7128 14.16126850   725

Traccia FENGYUN 1C DEB in tempo reale con AllMySat

Download on the App Store